Miles City, MT

8:33 AM MDT on April 26, 2017 (GMT -0600)
Wiley

Weather History for KMLS - August, 2013

Change the Weather History Date:

Thursday, August 22, 2013

  Actual Average Record
Temperature  
Mean Temperature 73 °F 71 °F  
Max Temperature 87 °F 86 °F 103 °F (1971)
Min Temperature 59 °F 57 °F 35 °F (1966)
Degree Days  
Heating Degree Days 0 1  
Month to date heating degree days 0 6  
Since 1 June heating degree days 59 107  
Since 1 July heating degree days 0 18  
Cooling Degree Days 8 7  
Month to date cooling degree days 179 205  
Year to date cooling degree days 604 620  
Since 1 June cooling degree days 591 600  
Growing Degree Days 22 (Base 50)    
Moisture  
Dew Point 55 °F    
Average Humidity 52    
Maximum Humidity 67    
Minimum Humidity 37    
Precipitation  
Precipitation 0.00 in 0.02 in 1.52 in (1973)
Month to date precipitation 1.58 0.68  
Year to date precipitation 13.70 9.53  
Sea Level Pressure  
Sea Level Pressure 30.00 in    
Wind  
Wind Speed 12 mph (ESE)    
Max Wind Speed 18 mph    
Max Gust Speed 25 mph    
Visibility 10 miles    
Events      
T = Trace of Precipitation, MM = Missing Value Source: NWS Daily Summary

Daily Weather History Graph

Daily Weather History Graph

Search for Another Location

Airport or City:

Trip Planner

Search our weather history database for the weather conditions in past years. The results will help you decide how hot, cold, wet, or windy it might be!

Date:

Astronomy

Aug. 22, 2013 Rise Set
Actual Time 6:11 AM MDT 8:00 PM MDT
Civil Twilight 5:39 AM MDT 8:32 PM MDT
Nautical Twilight 4:59 AM MDT 9:11 PM MDT
Astronomical Twilight 4:16 AM MDT 9:54 PM MDT
Moon 8:33 PM MDT (8/22) 8:13 AM MDT (8/22)
Length of Visible Light 14h 53m
Length of Day
13h 49m
Waning Gibbous, 96% of the Moon is Illuminated
Aug 22
Waning Gibbous
Aug 28
Last Quarter
Sep 5
New
Sep 12
First Quarter
Sep 19
Full

Hourly Weather History & Observations

Time (MDT) Temp. Heat Index Dew Point Humidity Pressure Visibility Wind Dir Wind Speed Gust Speed Precip Events Conditions
12:53 AM 68.0 °F - 48.9 °F 50% 30.05 in 10.0 mi NE 12.7 mph - N/A   Clear
1:53 AM 66.0 °F - 48.9 °F 54% 30.05 in 10.0 mi NE 12.7 mph - N/A   Clear
2:53 AM 64.0 °F - 48.9 °F 58% 30.06 in 10.0 mi NE 13.8 mph - N/A   Clear
3:53 AM 63.0 °F - 48.9 °F 60% 30.06 in 10.0 mi NE 12.7 mph - N/A   Clear
4:53 AM 62.1 °F - 48.9 °F 62% 30.06 in 10.0 mi NE 12.7 mph - N/A   Clear
5:53 AM 60.1 °F - 48.9 °F 67% 30.07 in 10.0 mi NE 10.4 mph - N/A   Clear
6:53 AM 59.0 °F - 48.9 °F 69% 30.09 in 10.0 mi NE 11.5 mph - N/A   Clear
7:53 AM 63.0 °F - 50.0 °F 63% 30.09 in 10.0 mi ENE 11.5 mph - N/A   Clear
8:53 AM 68.0 °F - 52.0 °F 56% 30.09 in 10.0 mi ENE 9.2 mph - N/A   Clear
9:53 AM 72.0 °F - 55.9 °F 57% 30.08 in 10.0 mi SSE 9.2 mph - N/A   Clear
10:53 AM 75.9 °F - 57.9 °F 54% 30.06 in 10.0 mi SE 11.5 mph - N/A   Clear
11:53 AM 77.0 °F - 57.9 °F 52% 30.05 in 10.0 mi SSE 12.7 mph - N/A   Clear
12:53 PM 79.0 °F - 57.9 °F 48% 30.02 in 10.0 mi SSE 9.2 mph - N/A   Clear
1:53 PM 81.0 °F 81.1 °F 57.9 °F 45% 30.00 in 10.0 mi SSE 11.5 mph - N/A   Clear
2:53 PM 84.9 °F 84.2 °F 57.9 °F 40% 29.97 in 10.0 mi SSE 9.2 mph - N/A   Clear
3:53 PM 86.0 °F 85.0 °F 57.9 °F 38% 29.95 in 10.0 mi SSE 9.2 mph - N/A   Clear
4:53 PM 86.0 °F 85.0 °F 57.9 °F 38% 29.93 in 10.0 mi SE 12.7 mph - N/A   Clear
5:53 PM 86.0 °F 84.9 °F 57.0 °F 37% 29.91 in 10.0 mi SE 12.7 mph 18.4 mph N/A   Clear
6:53 PM 84.9 °F 83.9 °F 57.0 °F 38% 29.89 in 10.0 mi ESE 12.7 mph - N/A   Clear
7:53 PM 82.0 °F 82.0 °F 57.9 °F 44% 29.90 in 10.0 mi SE 11.5 mph 18.4 mph N/A   Clear
8:53 PM 80.1 °F 80.7 °F 59.0 °F 48% 29.91 in 10.0 mi SE 17.3 mph 23.0 mph N/A   Clear
9:53 PM 77.0 °F - 60.1 °F 56% 29.90 in 10.0 mi SSE 12.7 mph - N/A   Clear
10:53 PM 75.0 °F - 60.1 °F 60% 29.89 in 10.0 mi South 10.4 mph 18.4 mph N/A   Clear
11:53 PM 73.9 °F - 60.1 °F 62% 29.88 in 10.0 mi SSE 9.2 mph - N/A   Clear